User: anonymous   Login
Location: The Saddle
(36.8333°N, 80.3417°W)
Time: 04:40:09
(UTC-05:00)
Language:

ITUPSAT 1 - Orbit

View from above orbital plane
View from above orbital plane
View from above satellite
View from above satellite

Ground track
Ground track

The orbit data is extracted from the following two-line orbital elements,

1 35935U 09051E   24063.39781851  .00001176  00000-0  26988-3 0  9998
2 35935  98.4897 305.4270 0007038 310.5060  49.5524 14.57395669766852
Epoch (UTC): 03 March 2024 09:32:51
Eccentricity: 0.0007038
inclination: 98.4897°
perigee height: 696 km
apogee height: 706 km
right ascension of ascending node: 305.4270°
argument of perigee: 310.5060°
revolutions per day: 14.57395669
mean anomaly at epoch: 49.5524°
orbit number at epoch: 76685

The dashed part of the orbit path shows where the satellite is in the earth's shadow,  

DLR